Date,TemperatureHighF,TemperatureAvgF,TemperatureLowF,DewpointHighF,DewpointAvgF,DewpointLowF,HumidityHigh,HumidityAvg,HumidityLow,PressureMaxIn,PressureMinIn,WindSpeedMaxMPH,WindSpeedAvgMPH,GustSpeedMaxMPH,PrecipitationSumIn
2013-3-1,29.8,28.1,26.2,29.2,27.3,25.8,99,97,87,30.17,30.07,4,2,11,0.00
2013-3-2,35.6,26.7,20.7,26.6,22.8,20.3,99,86,62,30.25,30.13,8,2,14,0.05
2013-3-3,55.8,38.5,19.8,30.5,26.7,19.6,99,67,35,30.14,29.78,8,3,17,0.01
2013-3-4,68.5,49.8,37.4,49.2,40.0,30.6,99,71,43,29.78,29.58,8,3,18,0.00
2013-3-5,43.0,36.4,28.9,37.6,28.4,22.1,99,74,50,30.21,29.77,13,4,21,0.05
2013-3-6,48.6,34.8,24.8,27.5,24.0,19.8,83,66,42,30.33,30.19,10,3,18,0.00
2013-3-7,62.2,46.1,31.5,35.1,29.1,20.7,84,56,20,30.24,30.10,7,3,17,0.00
2013-3-8,59.7,47.6,35.8,42.3,36.7,34.4,95,68,45,30.22,30.01,8,4,17,0.00
2013-3-9,72.9,56.9,44.4,58.7,47.9,38.7,99,75,36,30.01,29.67,13,4,22,0.78
2013-3-10,59.9,47.2,31.1,56.4,46.6,30.9,99,98,77,29.84,29.59,8,3,17,0.86
2013-3-11,44.2,33.6,27.0,32.7,28.5,26.2,99,83,56,29.97,29.79,7,2,17,0.01
2013-3-12,56.3,40.2,26.6,32.1,27.5,23.3,99,64,31,30.25,29.95,7,2,14,0.00
2013-3-13,49.3,37.4,26.1,28.4,25.1,19.0,90,64,32,30.39,30.24,4,1,8,0.00
2013-3-14,73.4,51.8,31.6,43.9,34.1,24.5,86,55,29,30.30,30.04,10,2,21,0.00
2013-3-15,83.7,65.3,47.8,51.8,46.4,40.0,87,55,23,30.05,29.71,8,2,20,0.00
2013-3-16,67.6,56.9,42.8,52.4,46.4,40.4,94,69,48,29.88,29.70,11,4,23,0.01
2013-3-17,42.4,39.3,36.7,41.8,39.1,36.4,99,99,97,29.94,29.65,8,3,15,1.22
2013-3-18,55.8,43.5,34.5,43.7,38.2,30.6,99,84,48,29.99,29.64,7,2,13,0.01
2013-3-19,51.4,39.3,26.6,34.8,26.0,11.7,99,65,24,30.19,29.98,8,1,16,0.01
2013-3-20,44.6,35.1,26.6,32.8,20.8,5.3,99,63,21,30.27,30.06,9,3,18,0.00
2013-3-21,37.2,30.3,24.8,31.6,22.2,11.9,99,75,38,30.06,29.83,5,2,13,0.00
2013-3-22,40.6,33.9,29.3,39.3,33.5,29.1,99,99,93,29.90,29.81,5,2,14,0.12
2013-3-23,41.5,37.7,34.0,40.4,37.4,33.7,99,99,94,29.91,29.67,5,1,12,0.17
2013-3-24,40.8,33.4,27.1,40.6,32.9,24.6,99,98,90,30.00,29.54,6,2,14,0.38
2013-3-25,34.0,27.3,22.3,29.1,25.1,21.0,99,91,77,30.23,29.97,7,3,16,0.00
2013-3-26,42.1,31.8,21.4,31.3,26.7,21.2,99,83,56,30.33,30.22,4,1,10,0.00
2013-3-27,54.5,40.0,24.6,33.7,28.6,24.4,99,68,39,30.28,30.12,7,2,16,0.00
2013-3-28,70.7,56.8,-10.8,49.2,41.2,-52.0,76,58,10,30.18,30.06,30,2,30,0.00
2013-3-29,71.4,58.2,50.4,58.6,52.1,45.0,99,82,53,30.14,30.06,7,1,13,0.12
2013-3-30,70.9,55.8,48.9,60.1,53.5,48.7,99,93,68,30.09,29.78,6,2,20,0.24
2013-3-31,69.6,56.6,45.5,56.1,46.3,39.7,99,73,35,29.93,29.81,8,1,11,0.34